Flag for U.S.A. Weather past 2 weeks in Oberlin, Ohio, U.S.A.

Now
49 °F

Sunny.


Feels Like: 45 °F
Forecast: 36 / 52 °F
Wind: 10 mph from North

Location: Lorain County Regional Airport

Current Time: Apr 26, 2015 at 12:25:47 PM

Latest Report: Apr 26, 2015 at 11:53 AM


Visibility: 10 mi

Pressure: 29.89 "Hg

Humidity: 59%

Dew point: 35 °F

Location of OberlinLocation

Historic Weather in Oberlin — Graph

°F

Oberlin temperature yesterday

Maximum temperature yesterday: 49 °F (at 2:53 PM)
Minimum temperature yesterday: 39 °F (at 3:53 AM)
Average temperature yesterday: 42 °F

Past Weeks' High & Low Weather Summary

 TemperatureHumidityPressure
High78 °F (Apr 13, 2:53 PM)100% (Apr 17, 3:53 AM)30.35 "Hg (Apr 17, 3:53 AM)
Low27 °F (Apr 24, 4:53 AM)26% (Apr 15, 2:53 PM)29.35 "Hg (Apr 20, 3:53 AM)
Average51 °F62%29.98 "Hg
* Reported Apr 11 10:53 AM — Apr 26 10:53 AM, Oberlin, Weather by CustomWeather, © 2015

Note: Actual official high and low records may vary slightly from our data, if they occured in-between our weather recording intervals... More about our weather records

Advertising

Oberlin weather history for previous 24 hours

 ConditionsComfort  
Time TempWeatherWind HumidityBarometerVisibility
10:53 AM
Sun, Apr 26
46 °FSunny.12 mph63%29.88 "Hg10 mi
9:53 AM45 °FSunny.9 mph65%29.87 "Hg10 mi
8:53 AM42 °FSunny.10 mph71%29.87 "Hg10 mi
7:53 AM39 °FSunny.10 mph79%29.86 "Hg10 mi
6:53 AM36 °FClear.8 mph85%29.84 "Hg10 mi
5:53 AM35 °FClear.6 mph88%29.82 "Hg10 mi
4:53 AM35 °FClear.7 mph88%29.80 "Hg10 mi
3:53 AM36 °FClear.7 mph85%29.79 "Hg10 mi
2:53 AM39 °FClear.10 mph76%29.78 "Hg10 mi
1:53 AM41 °FClear.12 mph65%29.78 "Hg10 mi
12:53 AM41 °FClear.10 mph62%29.78 "Hg10 mi
11:53 PM
Sat, Apr 25
40 °FClear.10 mph70%29.78 "Hg10 mi
10:53 PM41 °FPassing clouds.13 mph67%29.77 "Hg10 mi
9:53 PM42 °FClear.14 mph60%29.76 "Hg10 mi
8:53 PM41 °FSunny.14 mph58%29.77 "Hg10 mi
7:53 PM40 °FSunny.12 mph58%29.78 "Hg10 mi
6:53 PM41 °FSunny.12 mph53%29.79 "Hg10 mi
5:53 PM43 °FPassing clouds.13 mph49%29.79 "Hg10 mi
4:53 PM46 °FOvercast.16 mph40%29.77 "Hg10 mi
3:53 PM48 °FPartly sunny.15 mph43%29.78 "Hg10 mi
2:53 PM49 °FScattered clouds.14 mph44%29.80 "Hg10 mi
1:53 PM47 °FSunny.15 mph54%29.83 "Hg10 mi
12:53 PM48 °FSunny.13 mph56%29.86 "Hg10 mi
Weather by CustomWeather, © 2015

See weather overviewHow to use our weather pages